Location: *
(50.3194°N, 7.1067°E)
Time: 21:40:39
(UTC+00:00)

MOS 1 - Pass Details

Date: 22 September 2019
Orbit: 878 x 892 km, 99.2° (Epoch: 14 October)

Event Time Altitude Azimuth Distance (km) Brightness Sun altitude
Rises 18:27:07 0° 156° (SSE) 3,490 7.1 -9.8°
Reaches altitude 10° 18:29:31 10° 155° (SSE) 2,553 6.3 -10.2°
Maximum altitude 18:35:11 75° 71° (ENE) 924 4.3 -11.0°
Drops below altitude 10° 18:40:52 10° 347° (NNW) 2,562 7.1 -11.9°
Sets 18:43:17 0° 346° (NNW) 3,503 7.8 -12.3°
